Regional Weather Roundup
Issued by NWS

Home | Current Version | Previous Version | Text Only | Print | Product List | Glossary On
Versions: 1 2 3 4 5 6 7 8 9 10 11 12 13 14 15 16 17 18 19 20 21 22 23 24 25 26 27 28 29 30 31 32 33 34 35 36 37 38 39 40 41 42 43 44 45 46 47 48 49 50
415
ASUS44 KBMX 250610
RWRAL

ALABAMA REGIONAL WEATHER ROUNDUP
NATIONAL WEATHER SERVICE BIRMINGHAM AL
100 AM CDT SAT MAR 25 2017

NOTE: "FAIR" INDICATES FEW OR NO CLOUDS BELOW 12,000 FEET
WITH NO SIGNIFICANT WEATHER AND/OR OBSTRUCTIONS TO VISIBILITY.

THE REMARK "TC" DENOTES TEMPERATURE IN DEGREES CELSIUS.

ALZ001>011-014-016>018-020-250700-
NORTH ALABAMA

CITY           SKY/WX    TMP DP  RH WIND       PRES   REMARKS
MUSCLE SHOALS  CLEAR     66  55  67 S8        30.13F
6HR MIN TEMP:  65; 6HR MAX TEMP:  70;

HUNTSVILLE     CLOUDY    69  53  56 S12       30.15F
6HR MIN TEMP:  66; 6HR MAX TEMP:  72;

DECATUR        MOCLDY    65  53  65 SE8       30.15F
6HR MIN TEMP:  62; 6HR MAX TEMP:  69;

HALEYVILLE     FAIR      63  57  81 S8        30.16F
6HR MIN TEMP:  63; 6HR MAX TEMP:  69;

GADSDEN        MOCLDY    67  51  56 SE6       30.19F
6HR MIN TEMP:  66; 6HR MAX TEMP:  73;

$$

ALZ012-013-022-023-030>036-040>044-250700-
WEST CENTRAL ALABAMA

CITY           SKY/WX    TMP DP  RH WIND       PRES   REMARKS
TUSCALOOSA     CLOUDY    66  56  70 S12       30.15F
6HR MIN TEMP:  66; 6HR MAX TEMP:  72;

$$

ALZ015-024>027-033>036-040>044-250700-
CENTRAL ALABAMA

CITY           SKY/WX    TMP DP  RH WIND       PRES   REMARKS
BIRMINGHAM     NOT AVBL
MONTGOMERY     PTCLDY    63  52  67 SE5       30.19F
6HR MIN TEMP:  63; 6HR MAX TEMP:  75;

SHELBY CO ARPT MOCLDY    65  58  78 S5        30.18F
6HR MIN TEMP:  65; 6HR MAX TEMP:  72;

MAXWELL AFB    PTCLDY    63  54  73 SE3       30.18F
6HR MIN TEMP:  61; 6HR MAX TEMP:  73; 6HR PCP: TRACE;

GREENVILLE     FAIR      60  52  74 S6        30.18F
6HR MIN TEMP:  60; 6HR MAX TEMP:  73;

$$

ALZ019-021-028-029-037-038-045>048-250700-
EAST CENTRAL ALABAMA

CITY           SKY/WX    TMP DP  RH WIND       PRES   REMARKS
ANNISTON       PTCLDY    68  50  52 SE9G16    30.20F
6HR MIN TEMP:  67; 6HR MAX TEMP:  73;

ALEXANDER CITY MOCLDY    65  51  62 CALM      30.21F
6HR MIN TEMP:  62; 6HR MAX TEMP:  71;

AUBURN         MOCLDY    64  50  60 SE10      30.24S
6HR MIN TEMP:  64; 6HR MAX TEMP:  72;

$$

ALZ051>064-250700-
SOUTHWEST ALABAMA

CITY           SKY/WX    TMP DP  RH WIND       PRES   REMARKS
MOBILE         CLOUDY    67  61  81 SE12      30.15F
6HR MIN TEMP:  66; 6HR MAX TEMP:  70;

BROOKLEY FIELD CLOUDY    69  64  84 SE13      30.16F
6HR MIN TEMP:  68; 6HR MAX TEMP:  71;

EVERGREEN      CLOUDY    58  54  86 SE6       30.18F
6HR MIN TEMP:  57; 6HR MAX TEMP:  70;

$$

ALZ049-050-065>069-250700-
SOUTHEAST ALABAMA

CITY           SKY/WX    TMP DP  RH WIND       PRES   REMARKS
DOTHAN         CLOUDY    63  57  81 E7        30.25F
6HR MIN TEMP:  61; 6HR MAX TEMP:  73;

OZARK          MOCLDY    60  55  84 CALM      30.21S
6HR MIN TEMP:  60; 6HR MAX TEMP:  73;

TROY           PTCLDY    58  55  90 CALM      30.21F
6HR MIN TEMP:  58; 6HR MAX TEMP:  72;

EUFAULA        FAIR      67  50  54 SE10G20   30.22S
6HR MIN TEMP:  67; 6HR MAX TEMP:  73;

$$




USA.gov is the U.S. government's official web portal to all federal, state and local government web resources and services.